User: anonymous   Login
Location: Ostrava
(49.8330°N, 18.2830°E)
Time: 16:28:52
(UTC+02:00)
Language:

Iridium 7 - Orbit

View from above orbital plane
View from above orbital plane
View from above satellite
View from above satellite

Ground track
Ground track

The orbit data is extracted from the following two-line orbital elements,

1 24793U 97020B   15180.27715534  .00000205  00000-0  66172-4 0  9995
2 24793 086.3973 259.4102 0002331 094.0646 324.9270 14.34217668950153
Epoch (UTC): 29 June 2015 06:39:06
Eccentricity: 0.0002331
inclination: 86.3973°
perigee height: 776 km
apogee height: 779 km
right ascension of ascending node: 259.4102°
argument of perigee: 94.0646°
revolutions per day: 14.34217668
mean anomaly at epoch: 324.9270°
orbit number at epoch: 95015

The dashed part of the orbit path shows where the satellite is in the earth's shadow,  

DLR